Time,TemperatureF,DewpointF,PressureIn,WindDirection,WindDirectionDegrees,WindSpeedMPH,WindSpeedGustMPH,Humidity,HourlyPrecipIn,Conditions,Clouds,dailyrainin,SoftwareType,DateUTC
2013-07-30 00:03:00,64.0,58.0,30.13,East,99,0.0,0.0,82,0.00,,,0.00,,2013-07-30 04:03:00,
2013-07-30 00:23:00,65.0,58.0,30.13,NNW,347,1.0,3.0,78,0.00,,,0.00,,2013-07-30 04:23:00,
2013-07-30 00:43:00,66.0,58.0,30.14,ENE,57,1.0,4.0,75,0.00,,,0.00,,2013-07-30 04:43:00,
2013-07-30 00:53:00,66.0,58.0,30.14,ENE,57,1.0,4.0,75,0.00,,,0.00,,2013-07-30 04:53:00,
2013-07-30 01:03:00,66.0,57.0,30.14,NE,53,1.0,2.0,74,0.00,,,0.00,,2013-07-30 05:03:00,
2013-07-30 01:13:00,66.0,57.0,30.14,NNE,30,2.0,5.0,73,0.00,,,0.00,,2013-07-30 05:13:00,
2013-07-30 01:23:00,66.0,57.0,30.14,NNE,30,2.0,5.0,73,0.00,,,0.00,,2013-07-30 05:23:00,
2013-07-30 01:45:00,65.0,56.0,30.14,East,79,1.0,3.0,73,0.00,,,0.00,,2013-07-30 05:45:00,
2013-07-30 02:03:00,65.0,56.0,30.14,NE,38,2.0,3.0,74,0.00,,,0.00,,2013-07-30 06:03:00,
2013-07-30 02:13:00,64.0,56.0,30.14,NNE,13,0.0,5.0,75,0.00,,,0.00,,2013-07-30 06:13:00,
2013-07-30 02:23:00,64.0,56.0,30.14,NNE,13,0.0,5.0,75,0.00,,,0.00,,2013-07-30 06:23:00,
2013-07-30 02:33:00,64.0,56.0,30.13,NE,44,2.0,4.0,75,0.00,,,0.00,,2013-07-30 06:33:00,
2013-07-30 02:43:00,63.0,55.0,30.13,ESE,106,0.0,2.0,76,0.00,,,0.00,,2013-07-30 06:43:00,
2013-07-30 02:53:00,63.0,55.0,30.13,ESE,106,0.0,2.0,76,0.00,,,0.00,,2013-07-30 06:53:00,
2013-07-30 03:03:00,63.0,55.0,30.13,NNE,18,0.0,3.0,76,0.00,,,0.00,,2013-07-30 07:03:00,
2013-07-30 03:13:00,63.0,55.0,30.13,North,352,3.0,6.0,76,0.00,,,0.00,,2013-07-30 07:13:00,
2013-07-30 03:23:00,63.0,55.0,30.13,North,352,3.0,6.0,76,0.00,,,0.00,,2013-07-30 07:23:00,
2013-07-30 03:33:00,63.0,56.0,30.13,West,259,0.0,4.0,78,0.00,,,0.00,,2013-07-30 07:33:00,
2013-07-30 03:43:00,62.0,55.0,30.13,WSW,253,0.0,3.0,78,0.00,,,0.00,,2013-07-30 07:43:00,
2013-07-30 03:53:00,62.0,55.0,30.13,WSW,253,0.0,3.0,78,0.00,,,0.00,,2013-07-30 07:53:00,
2013-07-30 04:03:00,62.0,55.0,30.13,WNW,287,1.0,4.0,78,0.00,,,0.00,,2013-07-30 08:03:00,
2013-07-30 04:23:00,62.0,55.0,30.14,WNW,296,0.0,4.0,78,0.00,,,0.00,,2013-07-30 08:23:00,
2013-07-30 04:33:00,62.0,55.0,30.14,NW,308,1.0,3.0,78,0.00,,,0.00,,2013-07-30 08:33:00,
2013-07-30 04:43:00,62.0,55.0,30.14,NNW,347,0.0,6.0,78,0.00,,,0.00,,2013-07-30 08:43:00,
2013-07-30 04:53:00,62.0,55.0,30.14,NNW,347,0.0,6.0,78,0.00,,,0.00,,2013-07-30 08:53:00,
2013-07-30 05:03:00,62.0,55.0,30.15,NE,44,0.0,2.0,78,0.00,,,0.00,,2013-07-30 09:03:00,
2013-07-30 05:13:00,62.0,55.0,30.15,NE,44,0.0,2.0,78,0.00,,,0.00,,2013-07-30 09:13:00,
2013-07-30 05:23:00,62.0,55.0,30.15,ENE,61,1.0,4.0,78,0.00,,,0.00,,2013-07-30 09:23:00,
2013-07-30 05:33:00,62.0,55.0,30.16,NE,52,1.0,3.0,77,0.00,,,0.00,,2013-07-30 09:33:00,
2013-07-30 05:53:00,61.0,54.0,30.16,NNW,335,0.0,4.0,79,0.00,,,0.00,,2013-07-30 09:53:00,
2013-07-30 06:03:00,61.0,55.0,30.16,East,82,1.0,1.0,81,0.00,,,0.00,,2013-07-30 10:03:00,
2013-07-30 06:23:00,61.0,55.0,30.16,ENE,65,1.0,2.0,82,0.00,,,0.00,,2013-07-30 10:23:00,
2013-07-30 06:33:00,61.0,56.0,30.17,ENE,70,0.0,0.0,83,0.00,,,0.00,,2013-07-30 10:33:00,
2013-07-30 06:52:00,61.0,56.0,30.17,ENE,67,0.0,1.0,83,0.00,,,0.00,,2013-07-30 10:52:00,
2013-07-30 07:02:00,63.0,57.0,30.17,ENE,57,1.0,4.0,81,0.00,,,0.00,,2013-07-30 11:02:00,
2013-07-30 07:11:00,63.0,57.0,30.17,ENE,57,1.0,4.0,81,0.00,,,0.00,,2013-07-30 11:11:00,
2013-07-30 07:33:00,66.0,58.0,30.17,ENE,72,1.0,2.0,76,0.00,,,0.00,,2013-07-30 11:33:00,
2013-07-30 07:43:00,66.0,58.0,30.17,ENE,72,1.0,2.0,76,0.00,,,0.00,,2013-07-30 11:43:00,
2013-07-30 07:53:00,66.0,58.0,30.18,NE,49,1.0,5.0,76,0.00,,,0.00,,2013-07-30 11:53:00,
2013-07-30 08:12:00,67.0,59.0,30.18,West,260,1.0,5.0,75,0.00,,,0.00,,2013-07-30 12:12:00,
2013-07-30 08:22:00,67.0,58.0,30.18,West,277,1.0,4.0,74,0.00,,,0.00,,2013-07-30 12:22:00,
2013-07-30 08:33:00,67.0,58.0,30.18,North,1,2.0,6.0,72,0.00,,,0.00,,2013-07-30 12:33:00,
2013-07-30 08:53:00,68.0,58.0,30.19,West,281,3.0,8.0,71,0.00,,,0.00,,2013-07-30 12:53:00,
2013-07-30 09:12:00,70.0,60.0,30.19,WNW,285,2.0,5.0,71,0.00,,,0.00,,2013-07-30 13:12:00,
2013-07-30 09:22:00,69.0,59.0,30.19,West,281,3.0,10.0,70,0.00,,,0.00,,2013-07-30 13:22:00,
2013-07-30 09:33:00,70.0,59.0,30.18,SW,232,2.0,7.0,69,0.00,,,0.00,,2013-07-30 13:33:00,
2013-07-30 09:43:00,70.0,59.0,30.19,West,281,2.0,7.0,69,0.00,,,0.00,,2013-07-30 13:43:00,
2013-07-30 10:03:00,71.0,61.0,30.19,West,278,1.0,7.0,70,0.00,,,0.00,,2013-07-30 14:03:00,
2013-07-30 10:12:00,71.0,61.0,30.19,West,278,1.0,7.0,70,0.00,,,0.00,,2013-07-30 14:12:00,
2013-07-30 10:22:00,71.0,60.0,30.20,West,269,4.0,10.0,69,0.00,,,0.00,,2013-07-30 14:22:00,
2013-07-30 10:53:00,71.0,59.0,30.20,WSW,243,2.0,4.0,67,0.00,,,0.00,,2013-07-30 14:53:00,
2013-07-30 11:23:00,72.0,60.0,30.19,ENE,57,2.0,11.0,67,0.00,,,0.00,,2013-07-30 15:23:00,
2013-07-30 11:33:00,73.0,60.0,30.19,NE,51,4.0,9.0,64,0.00,,,0.00,,2013-07-30 15:33:00,
2013-07-30 11:43:00,73.0,61.0,30.19,West,271,2.0,5.0,66,0.00,,,0.00,,2013-07-30 15:43:00,
2013-07-30 11:53:00,73.0,61.0,30.19,West,271,2.0,5.0,66,0.00,,,0.00,,2013-07-30 15:53:00,
2013-07-30 12:12:00,73.0,61.0,30.18,WNW,302,2.0,10.0,65,0.00,,,0.00,,2013-07-30 16:12:00,
2013-07-30 12:23:00,75.0,62.0,30.18,ENE,70,3.0,7.0,63,0.00,,,0.00,,2013-07-30 16:23:00,
2013-07-30 12:44:00,74.0,61.0,30.18,NE,50,1.0,7.0,64,0.00,,,0.00,,2013-07-30 16:44:00,
2013-07-30 13:22:00,74.0,60.0,30.17,WSW,240,2.0,9.0,62,0.00,,,0.00,,2013-07-30 17:22:00,
2013-07-30 13:32:00,75.0,61.0,30.17,West,267,2.0,7.0,61,0.00,,,0.00,,2013-07-30 17:32:00,
2013-07-30 13:53:00,75.0,60.0,30.17,West,264,3.0,9.0,60,0.00,,,0.00,,2013-07-30 17:53:00,
2013-07-30 14:12:00,75.0,60.0,30.16,NNE,30,2.0,6.0,59,0.00,,,0.00,,2013-07-30 18:12:00,
2013-07-30 14:23:00,75.0,60.0,30.16,NNE,30,2.0,6.0,59,0.00,,,0.00,,2013-07-30 18:23:00,
2013-07-30 14:32:00,77.0,61.0,30.16,West,262,2.0,6.0,57,0.00,,,0.00,,2013-07-30 18:32:00,
2013-07-30 14:52:00,76.0,58.0,30.15,NW,319,5.0,9.0,53,0.00,,,0.00,,2013-07-30 18:52:00,
2013-07-30 15:03:00,76.0,60.0,30.15,NNW,345,2.0,5.0,57,0.00,,,0.00,,2013-07-30 19:03:00,
2013-07-30 15:33:00,77.0,60.0,30.14,North,351,2.0,5.0,56,0.00,,,0.00,,2013-07-30 19:33:00,
2013-07-30 15:44:00,77.0,60.0,30.14,West,281,3.0,8.0,55,0.00,,,0.00,,2013-07-30 19:44:00,
2013-07-30 15:52:00,77.0,60.0,30.14,West,281,3.0,8.0,55,0.00,,,0.00,,2013-07-30 19:52:00,
2013-07-30 16:02:00,77.0,59.0,30.14,West,270,2.0,6.0,54,0.00,,,0.00,,2013-07-30 20:02:00,
2013-07-30 16:13:00,77.0,59.0,30.14,West,270,2.0,6.0,54,0.00,,,0.00,,2013-07-30 20:13:00,
2013-07-30 16:22:00,78.0,61.0,30.14,West,276,2.0,5.0,55,0.00,,,0.00,,2013-07-30 20:22:00,
2013-07-30 16:33:00,78.0,61.0,30.14,West,276,2.0,5.0,55,0.00,,,0.00,,2013-07-30 20:33:00,
2013-07-30 16:43:00,77.0,59.0,30.13,West,274,3.0,7.0,54,0.00,,,0.00,,2013-07-30 20:43:00,
2013-07-30 16:52:00,77.0,59.0,30.13,West,274,3.0,7.0,54,0.00,,,0.00,,2013-07-30 20:52:00,
2013-07-30 17:02:00,78.0,61.0,30.13,West,276,1.0,7.0,56,0.00,,,0.00,,2013-07-30 21:02:00,
2013-07-30 17:12:00,78.0,61.0,30.13,West,276,1.0,7.0,56,0.00,,,0.00,,2013-07-30 21:12:00,
2013-07-30 17:22:00,77.0,59.0,30.13,West,276,3.0,6.0,54,0.00,,,0.00,,2013-07-30 21:22:00,
2013-07-30 17:32:00,77.0,60.0,30.13,West,273,3.0,6.0,55,0.00,,,0.00,,2013-07-30 21:32:00,
2013-07-30 17:53:00,77.0,60.0,30.12,SW,228,2.0,7.0,55,0.00,,,0.00,,2013-07-30 21:53:00,
2013-07-30 18:02:00,78.0,61.0,30.12,NNE,15,1.0,4.0,55,0.00,,,0.00,,2013-07-30 22:02:00,
2013-07-30 18:22:00,77.0,60.0,30.13,WNW,285,1.0,4.0,56,0.00,,,0.00,,2013-07-30 22:22:00,
2013-07-30 18:43:00,78.0,60.0,30.13,West,281,3.0,5.0,54,0.00,,,0.00,,2013-07-30 22:43:00,
2013-07-30 18:52:00,77.0,61.0,30.14,WNW,295,1.0,6.0,57,0.00,,,0.00,,2013-07-30 22:52:00,
2013-07-30 19:02:00,77.0,60.0,30.14,WNW,293,1.0,8.0,55,0.00,,,0.00,,2013-07-30 23:02:00,
2013-07-30 19:13:00,76.0,60.0,30.14,West,262,1.0,6.0,58,0.00,,,0.00,,2013-07-30 23:13:00,
2013-07-30 19:23:00,76.0,60.0,30.14,West,262,1.0,6.0,58,0.00,,,0.00,,2013-07-30 23:23:00,
2013-07-30 19:32:00,75.0,60.0,30.15,North,7,0.0,2.0,60,0.00,,,0.00,,2013-07-30 23:32:00,
2013-07-30 19:42:00,76.0,61.0,30.15,West,269,0.0,1.0,59,0.00,,,0.00,,2013-07-30 23:42:00,
2013-07-30 19:53:00,76.0,61.0,30.15,West,269,0.0,1.0,59,0.00,,,0.00,,2013-07-30 23:53:00,
2013-07-30 20:02:00,76.0,61.0,30.15,West,269,0.0,1.0,59,0.00,,,0.00,,2013-07-31 00:02:00,
2013-07-30 20:12:00,72.0,60.0,30.16,West,269,0.0,0.0,66,0.00,,,0.00,,2013-07-31 00:12:00,
2013-07-30 20:22:00,72.0,60.0,30.16,West,269,0.0,0.0,66,0.00,,,0.00,,2013-07-31 00:22:00,
2013-07-30 20:32:00,70.0,60.0,30.15,West,268,0.0,0.0,71,0.00,,,0.00,,2013-07-31 00:32:00,
2013-07-30 20:43:00,68.0,60.0,30.16,West,269,0.0,0.0,76,0.00,,,0.00,,2013-07-31 00:43:00,
2013-07-30 20:53:00,68.0,60.0,30.16,West,269,0.0,0.0,76,0.00,,,0.00,,2013-07-31 00:53:00,
2013-07-30 21:02:00,68.0,61.0,30.16,West,269,0.0,0.0,77,0.00,,,0.00,,2013-07-31 01:02:00,
2013-07-30 21:12:00,68.0,61.0,30.16,West,269,0.0,0.0,77,0.00,,,0.00,,2013-07-31 01:12:00,
2013-07-30 21:32:00,68.0,61.0,30.16,West,269,0.0,0.0,78,0.00,,,0.00,,2013-07-31 01:32:00,
2013-07-30 21:43:00,67.0,61.0,30.16,West,269,0.0,0.0,80,0.00,,,0.00,,2013-07-31 01:43:00,
2013-07-30 21:52:00,67.0,61.0,30.16,SSW,195,0.0,0.0,81,0.00,,,0.00,,2013-07-31 01:52:00,
2013-07-30 22:02:00,67.0,61.0,30.16,SSW,195,0.0,0.0,81,0.00,,,0.00,,2013-07-31 02:02:00,
2013-07-30 22:12:00,67.0,61.0,30.16,SSW,195,0.0,0.0,82,0.00,,,0.00,,2013-07-31 02:12:00,
2013-07-30 22:22:00,67.0,61.0,30.16,SSW,195,0.0,0.0,82,0.00,,,0.00,,2013-07-31 02:22:00,
2013-07-30 22:32:00,66.0,61.0,30.17,SSW,195,0.0,0.0,84,0.00,,,0.00,,2013-07-31 02:32:00,
2013-07-30 22:43:00,66.0,61.0,30.17,SSW,195,0.0,0.0,84,0.00,,,0.00,,2013-07-31 02:43:00,
2013-07-30 22:53:00,65.0,60.0,30.17,SSW,195,0.0,0.0,85,0.00,,,0.00,,2013-07-31 02:53:00,
2013-07-30 23:12:00,64.0,61.0,30.17,SSW,195,0.0,0.0,89,0.00,,,0.00,,2013-07-31 03:12:00,
2013-07-30 23:22:00,63.0,60.0,30.17,SSW,195,0.0,0.0,91,0.00,,,0.00,,2013-07-31 03:22:00,
2013-07-30 23:32:00,62.0,60.0,30.17,SSW,195,0.0,0.0,92,0.00,,,0.00,,2013-07-31 03:32:00,
2013-07-30 23:52:00,63.0,61.0,30.16,South,178,0.0,0.0,93,0.00,,,0.00,,2013-07-31 03:52:00,